Theta_e
341 339 340 340 336 333 331 331 331 328 322 322 323 326 329 330 331 331 333 334 332 331 331 331 329 326 326 329 328 327 332 335 327 327 327 332 335 335 329 333 334 333 333
339 339 339 340 339 335 332 331 331 328 323 323 324 326 330 330 331 331 331 331 331 331 331 328 325 323 326 329 329 332 335 337 337 338 332 328 327 328 328 329 333 334 333
338 338 338 340 340 336 333 332 331 329 324 324 325 325 327 328 328 328 327 326 326 326 324 322 324 324 325 327 329 330 335 336 337 338 337 334 330 329 330 334 334 330 330
338 337 338 339 340 337 334 332 331 329 325 324 324 325 326 325 324 321 320 320 321 321 323 323 322 323 323 325 327 329 332 335 336 337 339 336 331 330 331 332 334 333 331
339 338 339 338 339 338 335 333 332 330 325 324 324 325 324 322 321 321 322 322 321 322 321 321 322 323 323 325 327 327 330 332 335 338 338 336 333 332 331 329 330 331 331
339 338 339 338 339 339 336 334 332 330 326 325 324 324 322 321 321 322 323 324 322 321 321 321 321 322 323 324 325 327 327 330 333 336 339 337 335 332 329 326 327 330 330
338 339 338 339 340 339 337 335 332 330 326 325 325 323 322 322 322 323 323 323 323 323 322 321 321 322 322 322 323 324 324 326 329 332 336 336 336 333 329 326 323 323 328
336 338 338 339 340 338 338 334 333 329 327 326 324 323 323 323 324 325 326 326 325 324 323 323 323 324 323 323 322 322 322 322 324 330 336 336 338 334 330 326 323 322 322
335 336 338 339 339 339 337 334 333 328 327 326 325 324 323 324 325 327 327 326 325 324 324 324 323 323 321 319 318 319 321 322 322 326 333 337 336 334 331 326 324 323 319
340 334 335 337 338 338 336 334 332 328 328 327 326 325 324 326 327 328 328 327 326 326 325 324 322 319 317 316 316 316 316 318 322 325 327 335 336 335 331 327 325 323 320
340 334 333 335 335 336 335 334 330 329 329 328 327 327 327 327 328 329 328 327 328 327 327 326 324 323 322 322 321 323 325 324 322 330 331 332 333 335 333 331 327 325 323
339 336 333 333 334 335 334 331 330 330 330 330 329 329 329 329 329 330 329 329 333 329 326 326 326 326 326 323 325 326 330 330 322 329 331 332 332 333 331 331 329 326 324
342 338 334 332 332 332 332 331 331 332 331 331 331 330 331 331 331 331 332 334 334 332 327 326 327 329 328 327 327 328 327 326 330 330 330 331 331 331 330 331 329 328 325
345 343 337 333 333 333 333 333 333 333 333 332 332 332 332 332 333 336 336 336 335 332 328 326 331 331 331 330 329 329 328 326 325 328 330 330 330 329 328 330 329 328 326
347 347 344 336 334 334 334 334 334 334 334 334 333 333 333 333 333 338 338 337 336 333 330 332 332 333 332 332 331 330 328 327 326 324 325 326 329 329 328 327 329 329 327
347 346 345 340 338 338 337 338 337 336 335 335 335 335 335 336 334 338 338 338 337 335 334 333 334 333 332 332 331 331 330 328 327 325 325 325 326 327 327 327 326 327 328
347 347 346 343 342 341 341 340 341 340 340 337 337 336 337 338 337 338 338 337 337 337 335 335 334 333 333 333 332 332 332 330 327 326 325 325 325 325 326 325 325 325 326
346 346 347 344 343 343 342 341 341 341 342 340 339 339 338 339 338 337 337 337 337 337 336 335 335 334 333 332 329 326 327 325 325 326 324 325 323 322 324 325 324 324 324
345 345 346 345 344 344 342 342 342 342 342 342 342 341 340 340 339 338 338 337 337 336 336 335 335 334 332 330 328 326 326 324 323 321 321 321 319 321 321 321 321 321 322
343 344 345 345 345 345 343 343 342 341 341 342 343 342 342 341 340 339 338 337 337 336 336 335 335 332 330 330 327 327 322 322 319 319 318 317 319 319 319 319 321 321 320
342 343 345 345 345 345 344 343 342 341 341 341 343 343 341 341 340 340 339 338 337 336 335 334 334 331 330 329 326 322 320 318 317 317 317 319 319 318 318 318 318 319 321
342 343 343 344 343 344 343 342 341 340 339 340 340 342 342 342 341 340 339 338 337 336 335 335 334 332 330 327 320 320 315 315 317 318 316 316 316 317 317 316 317 318 319
341 342 343 343 343 342 342 341 340 339 339 339 339 340 339 338 338 339 339 337 336 336 335 336 332 332 327 322 320 317 313 312 312 316 313 313 314 316 316 317 317 316 316
339 341 343 343 342 342 342 340 339 338 338 338 338 338 338 338 337 337 338 337 336 336 336 334 330 327 318 313 320 321 320 317 315 313 316 315 315 314 315 315 316 316 315
338 341 342 344 342 341 341 340 339 338 337 337 337 337 337 337 336 336 336 336 336 337 336 331 324 318 315 317 317 317 318 318 317 316 313 313 315 314 315 314 314 314 314
339 342 343 343 342 342 341 341 340 338 338 337 337 337 336 336 336 336 335 336 338 337 331 327 321 321 318 318 318 317 318 317 315 315 311 311 311 314 314 313 313 314 313
Wind_Speed
23 25 26 25 24 22 21 20 19 18 18 20 21 21 21 21 20 19 18 17 16 14 13 12 11 11 13 14 15 15 17 18 17 17 14 14 13 12 12 12 13 13 13
35 28 27 26 25 23 22 20 19 18 18 19 19 19 19 18 18 17 16 15 14 13 12 11 10 11 12 13 13 14 15 15 15 15 14 14 12 12 13 12 12 12 12
38 31 27 27 26 24 23 21 20 18 18 19 19 18 17 16 15 14 13 12 12 11 10 10 10 10 10 11 11 11 11 11 10 8 10 10 11 10 11 10 12 11 11
36 31 28 27 26 25 24 22 21 19 18 18 18 17 16 15 14 13 12 11 11 10 10 9 9 8 8 9 8 8 9 7 7 7 2 5 6 8 8 8 8 8 9
32 30 28 27 27 26 25 23 21 19 18 18 17 16 15 14 13 12 11 10 10 9 8 8 8 7 6 6 6 5 5 4 6 6 3 1 3 5 6 7 5 4 6
31 29 28 27 27 26 26 24 21 19 18 17 16 15 14 13 12 11 10 9 9 7 7 7 6 6 5 4 4 3 2 2 3 5 2 3 1 2 4 5 5 6 6
29 28 27 27 28 28 26 24 21 19 17 16 15 14 13 12 11 11 10 8 7 7 6 6 5 4 3 3 3 2 3 4 3 2 1 4 5 2 2 3 3 4 3
31 28 27 27 28 27 26 24 21 19 17 16 14 13 12 12 11 11 9 8 7 7 6 6 5 4 3 3 2 3 4 5 4 2 3 7 5 5 4 2 4 4 5
27 28 29 29 28 27 25 23 21 19 18 16 15 14 13 12 12 10 9 8 7 7 6 5 5 3 2 2 2 2 3 5 5 4 2 4 8 6 5 3 4 4 5
26 31 31 30 29 28 26 24 22 20 19 17 16 15 13 13 12 11 9 7 6 5 5 4 3 2 2 1 1 1 0 3 4 5 5 4 8 10 7 5 5 5 4
28 31 31 31 30 29 27 25 23 22 21 19 18 16 15 14 13 12 9 7 6 4 4 4 4 2 2 2 1 2 3 3 3 4 4 6 11 11 10 9 7 7 7
32 33 34 32 30 29 28 27 25 24 23 22 20 19 17 15 13 11 10 9 8 5 6 6 4 3 3 2 1 1 2 4 3 5 6 6 7 12 12 10 9 9 11
34 34 36 35 33 31 30 29 28 27 26 24 22 21 19 17 16 15 13 12 10 8 8 7 6 4 3 1 2 2 4 3 6 7 8 7 8 11 12 12 10 11 11
37 35 36 37 35 34 33 32 31 29 28 26 25 23 22 21 20 17 17 14 11 9 9 8 7 5 5 6 5 7 6 6 6 8 8 9 9 12 13 14 12 12 15
40 41 38 40 40 38 35 34 33 32 30 29 27 26 24 24 23 20 18 18 16 12 11 10 9 6 8 8 9 10 8 9 10 11 13 13 11 14 16 14 15 13 13
39 42 40 41 42 40 38 36 35 33 32 31 30 29 27 26 26 22 21 21 19 16 14 13 12 12 11 10 9 8 8 11 11 10 10 10 11 14 17 17 16 17 15
43 43 44 43 42 42 40 37 36 33 32 33 32 30 30 29 27 26 24 25 23 20 19 17 16 16 14 11 11 13 12 12 10 11 14 13 12 11 15 19 21 19 20
36 41 46 44 46 44 44 40 38 35 33 32 32 31 30 30 29 28 28 26 22 23 25 22 20 17 16 14 12 11 11 13 13 15 16 17 16 19 20 21 23 22 19
43 41 44 45 47 48 46 42 38 35 35 33 32 32 32 31 32 31 28 27 23 24 26 25 25 21 16 14 13 13 13 13 14 15 17 17 16 16 18 19 20 20 20
42 46 50 48 47 47 40 38 38 34 34 35 35 35 34 33 33 33 32 28 29 28 28 26 24 19 16 15 12 14 15 14 15 14 14 13 13 13 14 16 17 18 18
38 39 44 43 43 43 41 39 37 41 37 34 34 34 36 34 35 34 34 31 30 29 29 28 25 21 15 13 10 11 14 14 14 11 9 11 12 11 14 17 17 18 18
41 43 42 45 44 48 41 39 32 32 31 34 37 32 32 34 34 36 36 35 31 30 30 30 29 22 18 15 5 1 3 4 7 6 9 11 14 13 16 18 18 17 19
35 39 39 44 47 44 38 33 24 23 22 27 33 36 34 33 32 36 36 35 35 34 34 36 32 28 22 16 15 6 1 4 2 8 8 10 11 12 17 18 18 20 22
31 33 32 33 37 37 38 34 31 30 25 32 33 34 34 37 34 34 34 35 38 39 40 38 32 25 14 15 12 19 18 6 2 3 7 10 10 18 17 19 22 22 24
33 35 35 36 34 35 37 33 33 27 25 22 27 32 38 40 39 41 40 39 42 43 40 39 26 22 14 23 18 9 14 11 10 6 4 6 10 14 15 18 20 24 25
20 27 30 30 33 35 35 37 37 32 29 26 28 32 33 38 39 40 39 41 43 42 35 34 32 19 23 24 17 16 14 7 5 7 4 7 9 14 14 16 17 18 22
Wind_Direction
178 171 162 162 160 156 152 147 141 133 129 126 125 123 121 119 120 119 118 116 116 115 110 106 99 92 91 92 93 89 89 83 83 76 70 78 77 70 56 63 62 65 69
170 170 166 165 165 161 158 154 148 140 136 131 129 127 124 121 121 120 119 119 119 116 110 105 102 103 101 99 94 91 96 91 88 73 73 73 66 66 62 58 58 55 58
164 166 167 168 168 166 162 162 155 149 143 139 135 132 131 127 124 123 122 123 120 117 114 107 102 99 99 101 99 96 94 89 81 60 61 69 70 66 62 61 57 49 49
161 165 167 170 170 169 169 168 161 155 149 144 139 137 133 128 128 127 127 126 122 115 111 107 109 109 108 112 117 115 109 95 73 47 135 78 79 64 63 70 72 53 33
162 166 169 171 172 174 172 173 166 160 155 149 145 141 137 135 134 131 129 124 119 117 116 114 115 121 120 120 118 120 121 105 96 91 105 128 65 58 53 54 56 48 48
164 167 169 171 174 175 177 177 170 165 160 153 149 147 143 142 139 138 134 130 127 124 122 123 128 134 134 133 145 130 131 133 104 32 155 212 304 18 33 33 42 37 31
165 168 168 172 176 179 180 178 173 168 164 158 156 153 151 148 148 146 145 140 137 134 133 132 142 146 153 165 163 171 198 210 224 24 103 246 268 293 1 9 37 29 22
165 167 169 174 180 182 181 178 176 172 169 166 163 160 159 157 156 155 153 148 145 147 154 159 169 177 176 185 199 214 232 234 235 282 354 211 250 276 301 309 5 5 360
169 172 175 179 183 184 182 181 180 177 175 173 172 171 169 170 166 167 167 163 164 166 170 174 184 194 198 204 221 249 279 284 271 256 332 193 262 260 257 276 324 338 339
174 181 181 182 184 185 184 184 183 181 182 182 182 181 180 179 179 180 180 181 182 192 188 190 195 208 237 300 312 294 8 285 275 245 247 252 242 253 249 268 288 303 313
177 186 187 186 185 185 184 185 186 187 188 188 188 189 189 191 190 190 191 193 198 214 212 204 223 237 285 300 273 52 15 345 257 217 266 260 245 239 253 267 277 296 297
182 189 191 190 188 187 187 188 190 191 192 194 196 195 197 200 201 198 201 206 213 222 214 209 204 201 217 152 26 326 1 341 270 251 291 270 249 240 254 260 271 282 296
184 189 194 194 193 191 194 194 195 197 198 199 202 203 201 203 204 204 208 207 215 228 220 209 201 195 187 222 299 304 286 303 277 279 288 288 262 250 259 260 268 280 268
190 194 195 197 196 197 199 200 201 202 202 204 206 208 207 208 207 208 212 215 221 231 219 211 202 217 233 239 267 282 282 280 272 277 278 278 264 256 269 262 272 276 281
188 193 197 197 198 200 202 204 206 208 208 210 211 212 212 215 214 213 220 222 226 226 214 211 211 221 238 243 256 261 277 282 285 278 273 278 274 266 269 268 266 264 270
191 192 195 197 200 200 202 206 208 212 215 216 216 217 216 218 217 218 219 223 228 228 223 223 231 236 239 223 228 255 267 260 265 274 282 272 271 275 278 279 277 262 258
196 193 195 197 199 201 203 204 208 213 217 220 221 221 221 219 221 222 223 226 231 232 230 225 228 222 211 237 259 269 273 277 282 277 276 279 282 275 277 289 287 278 271
191 192 197 196 198 202 203 204 208 214 217 219 221 221 221 222 222 223 228 228 233 232 223 218 216 220 232 250 262 267 269 282 277 271 279 281 301 295 286 289 289 287 277
192 190 195 197 200 202 203 205 207 212 217 221 222 223 223 224 225 226 229 228 223 213 212 213 221 229 240 239 249 256 265 278 280 281 281 288 290 291 293 291 287 289 288
189 192 197 198 200 201 201 204 206 211 221 225 224 225 227 228 228 230 227 227 217 216 219 219 223 229 233 233 241 261 274 275 278 280 288 293 292 293 294 293 292 291 289
186 186 191 193 196 195 198 197 199 206 211 219 226 230 229 231 229 228 222 219 217 222 221 219 221 226 215 220 235 258 269 273 266 270 272 275 277 284 292 290 286 285 285
184 191 190 196 195 198 197 199 201 206 209 216 222 228 231 228 228 227 225 224 224 223 219 219 222 211 207 213 216 232 299 299 251 214 267 265 276 276 274 280 286 290 290
187 191 192 195 199 196 198 195 198 196 211 216 224 229 230 233 235 227 226 227 228 226 222 219 215 207 199 207 217 200 212 236 253 258 237 254 267 272 279 272 279 287 286
191 191 191 192 195 194 199 194 193 191 200 214 217 220 223 230 232 232 232 233 233 232 226 218 201 200 200 232 217 227 243 241 208 321 255 253 253 277 269 272 279 283 287
186 185 188 195 196 198 201 201 200 204 214 219 217 218 221 225 229 236 239 241 235 235 233 214 184 185 239 228 213 211 234 243 257 231 277 266 256 274 279 287 283 279 285
170 174 183 195 203 209 210 212 213 213 214 217 218 218 221 225 232 235 240 238 237 237 227 202 200 220 215 227 229 239 244 238 252 254 266 271 264 294 292 291 288 281 285